sat.trackr.live / text

‹ back to catalog

STARLINK-3685

NORAD 52115 · 2022-029AD

PAYLOAD ACTIVE UNKNOWN

§ Identity

Operator
Country
US
Launch date
2022-03-19
Launch site
AFETR
Launch vehicle
Mass (kg)
RCS (m²)

Purposes: comms

External: N2YO · Heavens-Above · Gunter

§ Orbital elements

Epoch: 2026-05-25T02:35:21.341760Z

Period
95.44 min
Inclination
53.2132°
Eccentricity
0.0000860
Mean motion
15.08844102 rev/d
Perigee alt
539.1 km
Apogee alt
540.3 km
Semi-major
6,917.9 km
B*
3.4265e-5
RAAN
96.0646°
Arg perigee
98.1017°
Mean anomaly
262.0072°
Rev number
23,232

§ Raw data

STARLINK-36851 52115U 22029AD  26145.10788590  .00000258  00000+0  34265-4 0  99932 52115  53.2132  96.0646 0000860  98.1017 262.0072 15.08844102232327

JSON: /api/v1/satellites/52115 · /tle

For live sub-satellite position, see the globe view (requires WebGL).

§ Visibility from observer

Set your observer location to see the next 7 days of passes ≥ 10°. The values pass through the URL so the page stays shareable.

No JS? Fill the form by hand. The geolocation button needs JavaScript.